Location: Unspecified
(42.3650°N, 71.1030°W)
Time: 14:08:04
(UTC+00:00)

Explorer 11/Cluster Stage 4 - Pass Details

Date: 28 June 2024
Orbit: 465 x 1214 km, 28.8° (Epoch: 22 July)

Event Time Altitude Azimuth Distance (km) Brightness Sun altitude
Rises 03:26:09 0° 258° (WSW) 4,120 10.4 -21.7°
Reaches altitude 10° 03:30:18 10° 239° (WSW) 3,153 9.5 -22.0°
Enters shadow 03:33:27 16° 217° (SW) 2,714 9.0 -22.2°
Maximum altitude 03:34:52 16° 204° (SSW) 2,646 - -22.3°
Drops below altitude 10° 03:39:16 10° 169° (SSE) 3,017 - -22.5°
Sets 03:43:07 0° 149° (SSE) 3,862 - -22.7°
